Regional Weather Roundup
Issued by NWS

Home | Current Version | Previous Version | Graphics & Text | Print | Product List | Glossary On
Versions: 1 2 3 4 5 6 7 8 9 10 11 12 13 14 15 16 17 18 19 20 21 22 23 24 25 26 27 28 29 30 31 32 33 34 35 36 37 38 39 40 41 42 43 44 45 46 47 48 49 50
000
ASUS43 KOAX 231002
RWRNE

WEATHER ROUNDUP FOR NEBRASKA
NATIONAL WEATHER SERVICE OMAHA NE
500 AM CDT TUE SEP 23 2014

NOTES: SATELLITE DATA IS BEING USED TO AUGMENT CLOUD COVER ABOVE
       12000 FEET.
       "FAIR" INDICATES FEW OR NO CLOUDS BELOW 12,000 FEET WITH NO
       SIGNIFICANT WEATHER AND/OR OBSTRUCTIONS TO VISIBILITY.

  * THESE STATIONS DO NOT REPORT WEATHER SUCH AS RAIN...SNOW OR FOG.

NEZ001>004-019>022-054>056-231100-
NEBRASKA PANHANDLE

CITY           SKY/WX    TMP DP  RH WIND       PRES   REMARKS
SCOTTSBLUFF    CLEAR     50  49  96 NE5       30.00S
ALLIANCE       FOG       45  45 100 W5        29.97F VSB 3/4
CHADRON        PTCLDY    51  49  92 W7        29.92F
KIMBALL        PTCLDY    56  49  75 W8        30.05S
SIDNEY         PTCLDY    58  55  90 SW13      30.04F
$$

NEZ057>060-069>072-079>082-231100-
SOUTHWEST NEBRASKA

CITY           SKY/WX    TMP DP  RH WIND       PRES   REMARKS
NORTH PLATTE   MOCLDY    57  55  93 SE9       30.02F
IMPERIAL       PTCLDY    57  54  89 S7        30.03F
LEXINGTON      CLOUDY    57  56  94 SE12      30.07R
MCCOOK         CLOUDY    56  55  97 E7        30.06S
OGALLALA       PTCLDY    56  55  97 CALM      30.01R
$$

NEZ005>010-023>029-035>040-094-231100-
NORTH CENTRAL NEBRASKA

CITY           SKY/WX    TMP DP  RH WIND       PRES   REMARKS
VALENTINE      MOCLDY    56  52  86 S10       29.98F
AINSWORTH      MOCLDY    55  52  88 S16       30.01S
BROKEN BOW     CLOUDY    57  54  89 SE9       30.06R
O`NEILL        LGT RAIN  57  56  96 SE15      30.07F
ORD            RAIN      56  54  93 SE9       30.07F
$$

NEZ041-046>049-061>064-073>077-083>087-231100-
SOUTH CENTRAL NEBRASKA

CITY           SKY/WX    TMP DP  RH WIND       PRES   REMARKS
GRAND ISLAND   LGT RAIN  58  54  86 SE10      30.09F
AURORA         HVY RAIN  58  54  86 SE12      30.11S
HASTINGS       LGT RAIN  57  52  83 SE14      30.08F
HEBRON         RAIN      57  55  90 SE3       30.16S
HOLDREGE       LGT RAIN  56  54  91 S9        30.09R
KEARNEY *      CLOUDY    55  52  88 E14       30.08S
$$

NEZ011>018-030>034-042>045-231100-
NORTHEAST NEBRASKA

CITY           SKY/WX    TMP DP  RH WIND       PRES   REMARKS
NORFOLK        LGT RAIN  58  55  90 S12       30.13S
ALBION         LGT RAIN  56  54  91 SE8       30.11S
BLAIR          CLOUDY    62  52  70 S9        30.16S
COLUMBUS *     CLOUDY    57  52  82 S6        30.15S
FREMONT        CLOUDY    62  52  70 SE8       30.15F
TEKAMAH        CLOUDY    58  55  90 SE6       30.15S
WAYNE          CLOUDY    59  54  85 S6        30.13R
$$

NEZ050>053-065>068-078-088>093-231100-
SOUTHEAST NEBRASKA

CITY           SKY/WX    TMP DP  RH WIND       PRES   REMARKS
LINCOLN        CLOUDY    59  52  77 S7        30.16F
OMAHA EPPLEY   CLOUDY    62  52  69 S12       30.17R
BEATRICE       CLOUDY    60  52  76 SE7       30.17R
FALLS CITY     CLOUDY    58  52  80 S7        30.17S
NEBRASKA CITY    N/A     59  49  69 S7        30.18R
PLATTSMOUTH    CLOUDY    58  52  79 S6        30.18R
$$

NEZ044-045-051>053-067-231100-
OMAHA AREA

CITY           SKY/WX    TMP DP  RH WIND       PRES   REMARKS
OMAHA EPPLEY   CLOUDY    62  52  69 S12       30.17R
BLAIR          CLOUDY    62  52  70 S9        30.16S
FREMONT        CLOUDY    62  52  70 SE8       30.15F
MILLARD        CLOUDY    61  54  77 E5        30.16S
OFFUTT AFB     CLOUDY    58  58  99 E6        30.17R
PLATTSMOUTH    CLOUDY    58  52  79 S6        30.18R
WAHOO          PTSUNNY   59  52  77 SE6       30.15S
$$


USA.gov is the U.S. government's official web portal to all federal, state and local government web resources and services.